DW1437 Weather Reports


time (UTC)temp
C
wind
direction
speed
KPH
gust
KPH
rain 1hr
cm
rain 24hr
cm
rain mn
cm
humidity
%
barometer
mb
20260505170754 13 312 1.6 12.9 0.00 0.00 0.00 66 1013.3
20260505165818 13 10 0.0 1.6 0.00 0.00 0.00 67 1013.3
20260505163705 14 323 1.6 9.7 0.00 0.00 0.00 66 1013.3
20260505162632 14 315 0.0 9.7 0.00 0.00 0.00 66 1013.3
20260505161627 14 5 3.2 17.7 0.00 0.00 0.00 68 1013.3
20260505160636 14 301 4.8 17.7 0.00 0.00 0.00 66 1013.2
20260505152524 15 309 1.6 6.4 0.00 0.00 0.00 62 1013.4
20260505151514 14 355 1.6 12.9 0.00 0.00 0.00 64 1013.5
20260505150523 13 5 1.6 12.9 0.00 0.00 0.00 66 1013.6
20260505140209 13 311 3.2 16.1 0.00 0.00 0.00 69 1013.7
20260505125025 15 24 1.6 8.0 0.00 0.00 0.00 63 1013.7
20260505122826 13 33 4.8 17.7 0.00 0.00 0.00 67 1013.8
20260505121828 13 306 3.2 17.7 0.00 0.00 0.00 66 1013.8
20260505120801 13 331 1.6 6.4 0.00 0.00 0.00 66 1013.9
20260505115754 13 16 1.6 16.1 0.00 0.00 0.00 67 1013.8
20260505114811 13 27 3.2 16.1 0.00 0.00 0.00 65 1013.9
20260505112634 14 12 1.6 11.3 0.00 0.00 0.00 61 1013.8
20260505111636 14 5 3.2 11.3 0.00 0.00 0.00 63 1013.7
20260505101546 13 19 3.2 11.3 0.00 0.00 0.00 64 1014.3
20260505100525 13 48 1.6 11.3 0.00 0.00 0.00 64 1014.4
20260505095538 13 40 1.6 6.4 0.00 0.00 0.00 62 1014.3
20260505094522 13 24 1.6 6.4 0.00 0.00 0.00 64 1014.3
20260505093546 13 61 1.6 8.0 0.00 0.00 0.00 65 1014.3
20260505092559 13 52 3.2 9.7 0.00 0.00 0.00 67 1014.4
20260505091532 13 46 1.6 12.9 0.00 0.00 0.00 67 1014.3
20260505090459 13 5 3.2 12.9 0.00 0.00 0.00 68 1014.2
20260505085508 13 30 1.6 4.8 0.00 0.00 0.00 71 1014.3
20260505084447 12 61 1.6 6.4 0.00 0.00 0.00 71 1014.3
20260505083441 12 19 1.6 6.4 0.00 0.00 0.00 74 1014.4
20260505082412 11 31 1.6 4.8 0.00 0.00 0.00 76 1014.4
20260505080236 10 351 3.2 12.9 0.00 0.00 0.00 80 1014.5
20260505075230 10 294 0.0 9.7 0.00 0.00 0.00 85 1014.6
20260505074242 10 300 0.0 6.4 0.00 0.00 0.00 87 1014.6
20260505073254 9 302 0.0 8.0 0.00 0.00 0.00 89 1014.5
20260505072308 9 295 0.0 6.4 0.00 0.00 0.00 90 1014.6
20260505071245 9 298 0.0 0.0 0.00 0.00 0.00 92 1014.6
20260505064052 8 42 0.0 0.0 0.00 0.00 0.00 93 1014.8
20260505063047 8 42 0.0 0.0 0.00 0.00 0.00 93 1014.8
20260505062111 8 42 0.0 0.0 0.00 0.00 0.00 93 1014.9
20260505061047 8 42 0.0 0.0 0.00 0.00 0.00 93 1014.7
20260505060042 8 42 0.0 0.0 0.00 0.00 0.00 93 1014.7
20260505055018 7 42 0.0 0.0 0.00 0.00 0.00 93 1014.6
20260505054010 7 42 0.0 0.0 0.00 0.00 0.00 93 1014.6
20260505052950 7 42 0.0 0.0 0.00 0.00 0.00 93 1014.7
20260505052001 7 42 0.0 0.0 0.00 0.00 0.00 93 1014.6
20260505051007 7 42 0.0 0.0 0.00 0.00 0.00 93 1014.6
20260505040921 7 42 0.0 0.0 0.00 0.00 0.00 93 1014.3
20260505035847 7 42 0.0 0.0 0.00 0.00 0.00 93 1014.4
20260505033707 7 42 0.0 0.0 0.00 0.00 0.00 93 1014.3
20260505032648 7 42 0.0 0.0 0.00 0.00 0.00 93 1014.4
20260505031708 7 42 0.0 0.0 0.00 0.00 0.00 93 1014.5
20260505030727 7 42 0.0 0.0 0.00 0.00 0.00 93 1014.5
20260505025748 7 42 0.0 0.0 0.00 0.00 0.00 93 1014.4
20260505024715 7 42 0.0 0.0 0.00 0.00 0.00 93 1014.4
20260505022523 7 50 0.0 0.0 0.00 0.00 0.00 93 1014.6
20260505021527 7 50 0.0 0.0 0.00 0.00 0.00 92 1014.5
20260505020546 7 50 0.0 0.0 0.00 0.00 0.00 92 1014.7
20260505015533 7 50 0.0 0.0 0.00 0.00 0.00 92 1014.7
20260505014518 7 50 0.0 0.0 0.00 0.00 0.00 92 1014.8
20260505013535 7 50 0.0 0.0 0.00 0.00 0.00 92 1014.8
20260505012506 8 50 0.0 0.0 0.00 0.00 0.00 92 1014.8
20260505011455 8 50 0.0 0.0 0.00 0.00 0.00 92 1014.9
20260505005326 8 50 0.0 1.6 0.00 0.00 0.00 92 1014.9
20260505004309 8 46 0.0 0.0 0.00 0.00 0.00 91 1014.9
20260505003243 8 46 0.0 0.0 0.00 0.00 0.00 91 1015.1
20260505002244 8 46 0.0 0.0 0.00 0.00 0.00 91 1015.2
20260505001225 8 46 0.0 0.0 0.00 0.00 0.00 91 1015.2
20260504235049 8 32 0.0 4.8 0.00 0.00 0.00 91 1015.3
20260504234023 8 46 0.0 0.0 0.00 0.00 0.00 90 1015.3
20260504233034 8 46 0.0 0.0 0.00 0.00 0.00 90 1015.2
20260504232002 8 46 0.0 0.0 0.00 0.00 0.00 89 1015.2
20260504231023 9 46 0.0 0.0 0.00 0.00 0.00 90 1015.1
20260504230002 9 46 0.0 1.6 0.00 0.00 0.00 89 1015.2
20260504224933 9 42 0.0 0.0 0.00 0.00 0.00 89 1015.2
20260504222812 10 42 0.0 0.0 0.00 0.00 0.00 88 1015.2
20260504221758 10 42 0.0 0.0 0.00 0.00 0.00 87 1015.3
20260504214520 10 42 0.0 0.0 0.00 0.00 0.00 87 1015.3
20260504213540 11 42 0.0 0.0 0.00 0.00 0.00 86 1015.4
20260504212522 11 42 0.0 0.0 0.00 0.00 0.00 85 1015.4
20260504211454 11 42 0.0 0.0 0.00 0.00 0.00 85 1015.3
20260504210438 11 42 0.0 0.0 0.00 0.00 0.00 85 1015.3
20260504205407 12 44 0.0 3.2 0.00 0.00 0.00 85 1015.3
20260504204430 12 43 0.0 0.0 0.00 0.05 0.00 85 1015.3
20260504203451 12 49 0.0 0.0 0.00 0.10 0.00 85 1015.1
20260504201328 12 49 0.0 0.0 0.00 0.28 0.00 83 1015.0
20260504200303 12 49 0.0 0.0 0.00 0.36 0.00 82 1014.9
20260504195314 12 49 0.0 0.0 0.00 0.53 0.00 81 1014.8
20260504194241 12 49 0.0 0.0 0.00 0.64 0.00 80 1014.7
20260504193221 12 49 0.0 0.0 0.00 0.64 0.00 80 1014.6
20260504192220 13 35 0.0 0.0 0.00 0.64 0.00 79 1014.5
20260504191212 13 35 0.0 0.0 0.00 0.64 0.00 78 1014.4
20260504190218 13 35 0.0 0.0 0.00 0.64 0.00 76 1014.4
20260504185231 14 35 0.0 0.0 0.00 0.64 0.00 75 1014.4
20260504184223 15 35 0.0 0.0 0.00 0.66 0.00 74 1014.3
20260504183221 15 34 0.0 3.2 0.00 0.66 0.00 74 1014.2
20260504182231 15 34 0.0 0.0 0.00 0.66 0.00 73 1014.1
20260504180059 16 27 1.6 4.8 0.00 0.74 0.00 71 1013.9
20260504175105 16 34 1.6 8.0 0.00 0.74 0.00 71 1013.9
20260504174046 16 32 1.6 8.0 0.00 0.74 0.00 72 1013.8